,,,PA_Meas_PMT16A,,PR_Meas_QMR101_102,,RH_Meas_QMH101,,SR_Meas_QMS101,,TA_Meas_QMH101,,GenWind,,GenWind,
date,time,status,PA,status,PR,status,RH,status,SR,status,TA,status,DirAvg,status,SpdAvg,
2010-07-18, 00:00:04,VALID,1000.33,VALID,0,VALID,86.7869,VALID,0,VALID,24.6575,VALID,34,VALID,0.909766,
2010-07-18, 00:01:04,VALID,1000.35,VALID,0,VALID,86.7106,VALID,0,VALID,24.638,VALID,45,VALID,1.10039,
2010-07-18, 00:02:04,VALID,1000.34,VALID,0,VALID,86.3673,VALID,0,VALID,24.638,VALID,17,VALID,1.20117,
2010-07-18, 00:03:04,VALID,1000.34,VALID,0,VALID,86.1842,VALID,0,VALID,24.6575,VALID,14,VALID,1.19414,
2010-07-18, 00:04:04,VALID,1000.34,VALID,0,VALID,86.2071,VALID,0,VALID,24.6965,VALID,359,VALID,1.13359,
2010-07-18, 00:05:04,VALID,1000.36,VALID,0,VALID,85.7951,VALID,0,VALID,24.6946,VALID,349,VALID,1.21211,
2010-07-18, 00:06:04,VALID,1000.35,VALID,0,VALID,85.5051,VALID,0.112286,VALID,24.7142,VALID,335,VALID,0.738672,
2010-07-18, 00:07:04,VALID,1000.36,VALID,0,VALID,85.5891,VALID,0.112286,VALID,24.7123,VALID,335,VALID,0.741406,
2010-07-18, 00:08:04,VALID,1000.35,VALID,0,VALID,85.8637,VALID,0,VALID,24.7532,VALID,23,VALID,0.905078,
2010-07-18, 00:09:04,VALID,1000.35,VALID,0,VALID,85.7493,VALID,0.112286,VALID,24.7337,VALID,30,VALID,1.37734,
2010-07-18, 00:10:04,VALID,1000.36,VALID,0,VALID,86.0621,VALID,0,VALID,24.7142,VALID,2,VALID,1.00039,
2010-07-18, 00:11:04,VALID,1000.37,VALID,0,VALID,86.1537,VALID,0,VALID,24.6946,VALID,349,VALID,0.823438,
2010-07-18, 00:12:04,VALID,1000.39,VALID,0,VALID,86.4436,VALID,0,VALID,24.6946,VALID,340,VALID,0.486328,
2010-07-18, 00:13:04,VALID,1000.38,VALID,0,VALID,86.6877,VALID,0,VALID,24.6946,VALID,42,VALID,0.816016,
2010-07-18, 00:14:04,VALID,1000.37,VALID,0,VALID,86.8937,VALID,0,VALID,24.6751,VALID,51,VALID,1.05273,
2010-07-18, 00:15:04,VALID,1000.35,VALID,0,VALID,87.2066,VALID,0,VALID,24.6556,VALID,27,VALID,0.787109,
2010-07-18, 00:16:04,VALID,1000.34,VALID,0,VALID,87.2981,VALID,0,VALID,24.6147,VALID,6,VALID,1.20352,
2010-07-18, 00:17:04,VALID,1000.34,VALID,0,VALID,87.4354,VALID,0.112286,VALID,24.6556,VALID,14,VALID,1.34492,
2010-07-18, 00:18:04,VALID,1000.31,VALID,0,VALID,87.2829,VALID,0,VALID,24.6361,VALID,4,VALID,1.13437,
2010-07-18, 00:19:04,VALID,1000.29,VALID,0,VALID,87.4126,VALID,0,VALID,24.6556,VALID,3,VALID,0.754687,
2010-07-18, 00:20:04,VALID,1000.28,VALID,0,VALID,87.3439,VALID,0,VALID,24.6361,VALID,15,VALID,0.798047,
2010-07-18, 00:21:04,VALID,1000.29,VALID,0,VALID,86.6038,VALID,0,VALID,24.6361,VALID,27,VALID,0.892969,
2010-07-18, 00:22:04,VALID,1000.26,VALID,0,VALID,86.3215,VALID,0.112286,VALID,24.6537,VALID,18,VALID,0.639844,
2010-07-18, 00:23:04,VALID,1000.25,VALID,0,VALID,86.0545,VALID,0.112286,VALID,24.6946,VALID,32,VALID,0.696094,
2010-07-18, 00:24:04,VALID,1000.2,VALID,0,VALID,85.2457,VALID,0.112286,VALID,24.6946,VALID,46,VALID,1.08477,
2010-07-18, 00:25:04,VALID,1000.21,VALID,0,VALID,85.6043,VALID,0,VALID,24.7337,VALID,56,VALID,0.889844,
2010-07-18, 00:26:04,VALID,1000.17,VALID,0,VALID,85.7874,VALID,0.112286,VALID,24.7532,VALID,78,VALID,1.25898,
2010-07-18, 00:27:04,VALID,1000.15,VALID,0,VALID,85.5051,VALID,0.112286,VALID,24.7532,VALID,69,VALID,1.06914,
2010-07-18, 00:28:04,VALID,1000.15,VALID,0,VALID,85.5967,VALID,0.112286,VALID,24.7922,VALID,37,VALID,0.654297,
2010-07-18, 00:29:04,VALID,1000.12,VALID,0,VALID,85.6043,VALID,0,VALID,24.7727,VALID,33,VALID,0.343359,
2010-07-18, 00:30:04,VALID,1000.11,VALID,0,VALID,85.5967,VALID,0,VALID,24.7727,VALID,58,VALID,1.39688,
2010-07-18, 00:31:04,VALID,1000.1,VALID,0,VALID,85.7722,VALID,0,VALID,24.7532,VALID,51,VALID,1.64727,
2010-07-18, 00:32:04,VALID,1000.11,VALID,0,VALID,86.0087,VALID,0,VALID,24.7337,VALID,43,VALID,1.25391,
2010-07-18, 00:33:04,VALID,1000.1,VALID,0,VALID,86.3215,VALID,0,VALID,24.7142,VALID,44,VALID,0.601172,
2010-07-18, 00:34:04,VALID,1000.11,VALID,0,VALID,86.7869,VALID,0,VALID,24.6946,VALID,43,VALID,0.583203,
2010-07-18, 00:35:04,VALID,1000.08,VALID,0,VALID,87.0158,VALID,0,VALID,24.6965,VALID,43,VALID,0.357031,
2010-07-18, 00:36:04,VALID,1000.04,VALID,0,VALID,87.0845,VALID,0,VALID,24.6575,VALID,43,VALID,0.0480469,
2010-07-18, 00:37:04,VALID,1000.04,VALID,0,VALID,87.1608,VALID,0,VALID,24.6361,VALID,43,VALID,0.000390625,
2010-07-18, 00:38:04,VALID,1000.02,VALID,0,VALID,87.2142,VALID,0,VALID,24.5971,VALID,43,VALID,0.671094,
2010-07-18, 00:39:04,VALID,1000.02,VALID,0,VALID,86.8098,VALID,0,VALID,24.5971,VALID,208,VALID,0.779688,
2010-07-18, 00:40:04,VALID,1000,VALID,0,VALID,86.4741,VALID,0,VALID,24.6575,VALID,190,VALID,0.612109,
2010-07-18, 00:41:04,VALID,999.986,VALID,0,VALID,86.1689,VALID,0,VALID,24.677,VALID,169,VALID,1.09453,
2010-07-18, 00:42:04,VALID,999.978,VALID,0,VALID,85.4289,VALID,0,VALID,24.7142,VALID,185,VALID,1.30469,
2010-07-18, 00:43:04,VALID,999.951,VALID,0,VALID,84.7498,VALID,0,VALID,24.7922,VALID,168,VALID,1.17109,
2010-07-18, 00:44:04,VALID,999.954,VALID,0,VALID,84.2539,VALID,0,VALID,24.9093,VALID,159,VALID,1.29688,
2010-07-18, 00:45:04,VALID,999.944,VALID,0,VALID,83.5443,VALID,0,VALID,24.9679,VALID,159,VALID,1.30664,
2010-07-18, 00:46:04,VALID,999.91,VALID,0,VALID,83.3307,VALID,0,VALID,25.0265,VALID,165,VALID,1.08984,
2010-07-18, 00:47:04,VALID,999.889,VALID,0,VALID,82.6593,VALID,0,VALID,25.0674,VALID,161,VALID,1.2332,
2010-07-18, 00:48:04,VALID,999.903,VALID,0,VALID,83.3689,VALID,0,VALID,25.085,VALID,134,VALID,1.53477,
2010-07-18, 00:49:04,VALID,999.92,VALID,0,VALID,83.407,VALID,0,VALID,25.1455,VALID,143,VALID,1.28203,
2010-07-18, 00:50:04,VALID,999.897,VALID,0,VALID,83.9411,VALID,0,VALID,25.1455,VALID,127,VALID,1.12695,
2010-07-18, 00:51:04,VALID,999.886,VALID,0,VALID,84.376,VALID,0,VALID,25.1045,VALID,127,VALID,1.04414,
2010-07-18, 00:52:04,VALID,999.828,VALID,0,VALID,84.6964,VALID,0,VALID,25.046,VALID,124,VALID,0.779688,
2010-07-18, 00:53:04,VALID,999.837,VALID,0,VALID,85.2,VALID,0,VALID,25.0069,VALID,125,VALID,1.08164,
2010-07-18, 00:54:04,VALID,999.807,VALID,0,VALID,85.7722,VALID,0,VALID,24.9698,VALID,129,VALID,1.07852,
2010-07-18, 00:55:04,VALID,999.76,VALID,0,VALID,86.1537,VALID,0,VALID,24.9308,VALID,142,VALID,1.15156,
2010-07-18, 00:56:04,VALID,999.77,VALID,0,VALID,86.3444,VALID,0,VALID,24.8898,VALID,145,VALID,1.28516,
2010-07-18, 00:57:04,VALID,999.732,VALID,0,VALID,86.3978,VALID,0,VALID,24.9308,VALID,148,VALID,1.37617,
2010-07-18, 00:58:04,VALID,999.676,VALID,0,VALID,85.5967,VALID,0,VALID,24.9289,VALID,178,VALID,1.83555,
2010-07-18, 00:59:04,VALID,999.682,VALID,0,VALID,84.8948,VALID,0,VALID,25.0088,VALID,177,VALID,1.55313,
2010-07-18, 01:00:04,VALID,999.668,VALID,0,VALID,84.6659,VALID,0,VALID,25.0869,VALID,161,VALID,1.27305,
2010-07-18, 01:01:04,VALID,999.608,VALID,0,VALID,84.3073,VALID,0,VALID,25.1045,VALID,156,VALID,1.55781,
2010-07-18, 01:02:04,VALID,999.639,VALID,0,VALID,84.1395,VALID,0,VALID,25.1436,VALID,151,VALID,1.29727,
2010-07-18, 01:03:04,VALID,999.624,VALID,0,VALID,84.3149,VALID,0,VALID,25.1826,VALID,148,VALID,0.899219,
2010-07-18, 01:04:04,VALID,999.632,VALID,0,VALID,84.2463,VALID,0,VALID,25.1826,VALID,147,VALID,0.982031,
2010-07-18, 01:05:04,VALID,999.603,VALID,0,VALID,84.292,VALID,0,VALID,25.1826,VALID,143,VALID,0.828906,
2010-07-18, 01:06:04,VALID,999.603,VALID,0,VALID,84.2081,VALID,0,VALID,25.1631,VALID,143,VALID,0.805469,
2010-07-18, 01:07:04,VALID,999.601,VALID,0,VALID,83.9716,VALID,0,VALID,25.1631,VALID,143,VALID,0.730859,
2010-07-18, 01:08:04,VALID,999.574,VALID,0,VALID,83.8724,VALID,0,VALID,25.1631,VALID,143,VALID,0.421875,
2010-07-18, 01:09:04,VALID,999.59,VALID,0,VALID,83.7122,VALID,0,VALID,25.1826,VALID,143,VALID,0.332422,
2010-07-18, 01:10:04,VALID,999.598,VALID,0,VALID,83.7427,VALID,0,VALID,25.1631,VALID,143,VALID,0.317578,
2010-07-18, 01:11:04,VALID,999.632,VALID,0,VALID,84.0021,VALID,0,VALID,25.204,VALID,143,VALID,0.164844,
2010-07-18, 01:12:04,VALID,999.646,VALID,0,VALID,83.9563,VALID,0,VALID,25.204,VALID,143,VALID,0,
2010-07-18, 01:13:04,VALID,999.616,VALID,0,VALID,83.8572,VALID,0,VALID,25.1826,VALID,143,VALID,0,
2010-07-18, 01:14:04,VALID,999.642,VALID,0,VALID,83.6893,VALID,0,VALID,25.204,VALID,143,VALID,0,
2010-07-18, 01:15:04,VALID,999.649,VALID,0,VALID,83.4757,VALID,0,VALID,25.204,VALID,143,VALID,0.0402344,
2010-07-18, 01:16:04,VALID,999.625,VALID,0,VALID,83.1629,VALID,0,VALID,25.204,VALID,143,VALID,0.23125,
2010-07-18, 01:17:04,VALID,999.655,VALID,0,VALID,83.3994,VALID,0,VALID,25.204,VALID,143,VALID,0.249219,
2010-07-18, 01:18:04,VALID,999.666,VALID,0,VALID,83.5367,VALID,0,VALID,25.1826,VALID,143,VALID,0.560547,
2010-07-18, 01:19:04,VALID,999.631,VALID,0,VALID,83.2163,VALID,0,VALID,25.165,VALID,129,VALID,1.02422,
2010-07-18, 01:20:04,VALID,999.602,VALID,0,VALID,82.8195,VALID,0,VALID,25.165,VALID,130,VALID,0.990234,
2010-07-18, 01:21:04,VALID,999.597,VALID,0,VALID,82.9492,VALID,0,VALID,25.2236,VALID,135,VALID,0.854297,
2010-07-18, 01:22:04,VALID,999.56,VALID,0,VALID,82.7432,VALID,0,VALID,25.2217,VALID,135,VALID,0.807031,
2010-07-18, 01:23:04,VALID,999.551,VALID,0,VALID,82.2931,VALID,0,VALID,25.2412,VALID,135,VALID,0.633984,
2010-07-18, 01:24:04,VALID,999.54,VALID,0,VALID,82.4304,VALID,0,VALID,25.2607,VALID,135,VALID,0.437891,
2010-07-18, 01:25:04,VALID,999.521,VALID,0,VALID,83.0103,VALID,0,VALID,25.2821,VALID,135,VALID,0.612891,
2010-07-18, 01:26:04,VALID,999.513,VALID,0,VALID,83.4528,VALID,0,VALID,25.2626,VALID,134,VALID,0.598828,
2010-07-18, 01:27:04,VALID,999.517,VALID,0,VALID,83.8953,VALID,0,VALID,25.204,VALID,131,VALID,0.319141,
2010-07-18, 01:28:04,VALID,999.538,VALID,0,VALID,84.1471,VALID,0,VALID,25.126,VALID,131,VALID,0.353125,
2010-07-18, 01:29:04,VALID,999.539,VALID,0,VALID,84.5286,VALID,0,VALID,25.0265,VALID,131,VALID,0.421875,
2010-07-18, 01:30:04,VALID,999.541,VALID,0,VALID,84.8872,VALID,0,VALID,25.0088,VALID,7,VALID,0.655859,
2010-07-18, 01:31:04,VALID,999.511,VALID,0,VALID,85.2381,VALID,0,VALID,24.9484,VALID,7,VALID,0.794922,
2010-07-18, 01:32:04,VALID,999.468,VALID,0,VALID,85.7188,VALID,0,VALID,24.9112,VALID,7,VALID,0.783594,
2010-07-18, 01:33:04,VALID,999.45,VALID,0,VALID,86.0087,VALID,0,VALID,24.8313,VALID,15,VALID,0.921875,
2010-07-18, 01:34:04,VALID,999.452,VALID,0,VALID,86.0545,VALID,0,VALID,24.7727,VALID,15,VALID,0.967969,
2010-07-18, 01:35:04,VALID,999.421,VALID,0,VALID,86.0392,VALID,0,VALID,24.7941,VALID,17,VALID,0.928125,
2010-07-18, 01:36:04,VALID,999.41,VALID,0,VALID,86.0774,VALID,0,VALID,24.7746,VALID,17,VALID,0.890625,
2010-07-18, 01:37:04,VALID,999.404,VALID,0,VALID,86.2452,VALID,0,VALID,24.7356,VALID,17,VALID,0.73125,
2010-07-18, 01:38:04,VALID,999.404,VALID,0,VALID,86.5123,VALID,0,VALID,24.677,VALID,17,VALID,0.515234,
2010-07-18, 01:39:04,VALID,999.372,VALID,0,VALID,86.8403,VALID,0,VALID,24.5989,VALID,17,VALID,0.601953,
2010-07-18, 01:40:04,VALID,999.42,VALID,0,VALID,87.2218,VALID,0,VALID,24.5404,VALID,20,VALID,0.784375,
2010-07-18, 01:41:04,VALID,999.405,VALID,0,VALID,87.4278,VALID,0,VALID,24.4623,VALID,22,VALID,0.836719,
2010-07-18, 01:42:04,VALID,999.4,VALID,0,VALID,87.9924,VALID,0,VALID,24.4037,VALID,17,VALID,1.11797,
2010-07-18, 01:43:04,VALID,999.402,VALID,0,VALID,88.6028,VALID,0,VALID,24.3452,VALID,18,VALID,1.45664,
2010-07-18, 01:44:04,VALID,999.43,VALID,0,VALID,89.1063,VALID,0,VALID,24.3257,VALID,15,VALID,1.47031,
2010-07-18, 01:45:04,VALID,999.415,VALID,0,VALID,88.8393,VALID,0,VALID,24.2866,VALID,14,VALID,1.4875,
2010-07-18, 01:46:04,VALID,999.408,VALID,0,VALID,88.5875,VALID,0,VALID,24.2866,VALID,17,VALID,1.73672,
2010-07-18, 01:47:04,VALID,999.425,VALID,0,VALID,88.496,VALID,0,VALID,24.2671,VALID,14,VALID,1.56133,
2010-07-18, 01:48:04,VALID,999.397,VALID,0,VALID,88.4807,VALID,0,VALID,24.2476,VALID,16,VALID,1.76523,
2010-07-18, 01:49:04,VALID,999.402,VALID,0,VALID,88.4197,VALID,0,VALID,24.2281,VALID,18,VALID,1.55273,
2010-07-18, 01:50:04,VALID,999.401,VALID,0,VALID,88.2366,VALID,0,VALID,24.2067,VALID,19,VALID,1.38594,
2010-07-18, 01:51:04,VALID,999.392,VALID,0,VALID,88.084,VALID,0,VALID,24.2086,VALID,12,VALID,1.02227,
2010-07-18, 01:52:04,VALID,999.38,VALID,0,VALID,88.0763,VALID,0,VALID,24.2086,VALID,17,VALID,1.70313,
2010-07-18, 01:53:04,VALID,999.366,VALID,0,VALID,88.0916,VALID,0,VALID,24.1891,VALID,10,VALID,1.8832,
2010-07-18, 01:54:04,VALID,999.388,VALID,0,VALID,88.1679,VALID,0,VALID,24.1696,VALID,6,VALID,1.68789,
2010-07-18, 01:55:04,VALID,999.347,VALID,0,VALID,88.1984,VALID,0,VALID,24.1482,VALID,5,VALID,1.24922,
2010-07-18, 01:56:04,VALID,999.347,VALID,0,VALID,88.0534,VALID,0,VALID,24.1891,VALID,14,VALID,0.993359,
2010-07-18, 01:57:04,VALID,999.394,VALID,0,VALID,88.0458,VALID,0,VALID,24.2086,VALID,24,VALID,1.1875,
2010-07-18, 01:58:04,VALID,999.383,VALID,0,VALID,88.0306,VALID,0,VALID,24.1891,VALID,19,VALID,1.0793,
2010-07-18, 01:59:04,VALID,999.369,VALID,0,VALID,88.0611,VALID,0,VALID,24.15,VALID,30,VALID,1.13594,
2010-07-18, 02:00:04,VALID,999.386,VALID,0,VALID,88.1832,VALID,0,VALID,24.111,VALID,34,VALID,0.966797,
2010-07-18, 02:01:04,VALID,999.301,VALID,0,VALID,88.3281,VALID,0,VALID,24.072,VALID,33,VALID,0.797266,
2010-07-18, 02:02:04,VALID,999.293,VALID,0,VALID,88.5417,VALID,0,VALID,24.0525,VALID,32,VALID,0.540625,
2010-07-18, 02:03:04,VALID,999.301,VALID,0,VALID,88.6943,VALID,0,VALID,24.0329,VALID,32,VALID,0.418359,
2010-07-18, 02:04:04,VALID,999.279,VALID,0,VALID,88.824,VALID,0,VALID,24.0134,VALID,32,VALID,0.156641,
2010-07-18, 02:05:04,VALID,999.303,VALID,0,VALID,88.8851,VALID,0,VALID,23.9726,VALID,32,VALID,0.283203,
2010-07-18, 02:06:04,VALID,999.294,VALID,0,VALID,88.8927,VALID,0,VALID,23.9939,VALID,32,VALID,0.662891,
2010-07-18, 02:07:04,VALID,999.293,VALID,0,VALID,88.9156,VALID,0,VALID,23.9939,VALID,32,VALID,0.545313,
2010-07-18, 02:08:04,VALID,999.336,VALID,0,VALID,88.8164,VALID,0,VALID,24.0134,VALID,32,VALID,0.438672,
2010-07-18, 02:09:04,VALID,999.311,VALID,0,VALID,88.7249,VALID,0,VALID,24.0329,VALID,32,VALID,0.457812,
2010-07-18, 02:10:04,VALID,999.326,VALID,0,VALID,88.7249,VALID,0,VALID,24.0116,VALID,49,VALID,0.858594,
2010-07-18, 02:11:04,VALID,999.36,VALID,0,VALID,88.702,VALID,0,VALID,24.0329,VALID,49,VALID,0.6625,
2010-07-18, 02:12:04,VALID,999.336,VALID,0,VALID,88.6562,VALID,0,VALID,24.0134,VALID,36,VALID,0.746484,
2010-07-18, 02:13:04,VALID,999.353,VALID,0,VALID,88.7554,VALID,0,VALID,23.9744,VALID,8,VALID,0.752734,
2010-07-18, 02:14:04,VALID,999.363,VALID,0,VALID,88.8546,VALID,0,VALID,23.9744,VALID,8,VALID,0.476563,
2010-07-18, 02:15:04,VALID,999.404,VALID,0,VALID,88.8317,VALID,0,VALID,23.9744,VALID,8,VALID,0.426562,
2010-07-18, 02:16:04,VALID,999.438,VALID,0,VALID,88.9003,VALID,0,VALID,23.9549,VALID,8,VALID,0.208203,
2010-07-18, 02:17:04,VALID,999.487,VALID,0,VALID,88.9537,VALID,0,VALID,23.9336,VALID,8,VALID,0.220703,
2010-07-18, 02:18:04,VALID,999.533,VALID,0,VALID,89.0682,VALID,0,VALID,23.914,VALID,8,VALID,0.232031,
2010-07-18, 02:19:04,VALID,999.584,VALID,0,VALID,89.2055,VALID,0,VALID,23.8945,VALID,8,VALID,0.435937,
2010-07-18, 02:20:04,VALID,999.621,VALID,0,VALID,89.4497,VALID,0,VALID,23.9159,VALID,93,VALID,0.639453,
2010-07-18, 02:21:04,VALID,999.661,VALID,0,VALID,89.3963,VALID,0,VALID,23.9354,VALID,136,VALID,0.755078,
2010-07-18, 02:22:04,VALID,999.675,VALID,0,VALID,89.0758,VALID,0,VALID,23.9531,VALID,136,VALID,0.875,
2010-07-18, 02:23:04,VALID,999.67,VALID,0,VALID,88.5799,VALID,0,VALID,24.0329,VALID,136,VALID,0.942578,
2010-07-18, 02:24:04,VALID,999.662,VALID,0,VALID,88.0916,VALID,0,VALID,24.111,VALID,148,VALID,1.07852,
2010-07-18, 02:25:04,VALID,999.641,VALID,0,VALID,87.382,VALID,0,VALID,24.1696,VALID,156,VALID,1.03867,
2010-07-18, 02:26:04,VALID,999.652,VALID,0,VALID,86.6877,VALID,0,VALID,24.2458,VALID,156,VALID,0.888281,
2010-07-18, 02:27:04,VALID,999.656,VALID,0,VALID,86.848,VALID,0,VALID,24.3452,VALID,154,VALID,1.10586,
2010-07-18, 02:28:04,VALID,999.654,VALID,0,VALID,86.7869,VALID,0,VALID,24.3629,VALID,154,VALID,0.866016,
2010-07-18, 02:29:04,VALID,999.668,VALID,0,VALID,86.6191,VALID,0,VALID,24.4233,VALID,154,VALID,0.924609,
2010-07-18, 02:30:04,VALID,999.675,VALID,0,VALID,86.2681,VALID,0,VALID,24.4428,VALID,163,VALID,1.11992,
2010-07-18, 02:31:04,VALID,999.743,VALID,0,VALID,86.0697,VALID,0,VALID,24.5404,VALID,162,VALID,1.28906,
2010-07-18, 02:32:04,VALID,999.719,VALID,0,VALID,85.8332,VALID,0,VALID,24.6184,VALID,173,VALID,1.05742,
2010-07-18, 02:33:04,VALID,999.728,VALID,0,VALID,85.4441,VALID,0,VALID,24.677,VALID,172,VALID,1.00273,
2010-07-18, 02:34:04,VALID,999.71,VALID,0,VALID,85.2,VALID,0,VALID,24.7356,VALID,169,VALID,0.94375,
2010-07-18, 02:35:04,VALID,999.765,VALID,0,VALID,84.2997,VALID,0,VALID,24.7941,VALID,169,VALID,0.944531,
2010-07-18, 02:36:04,VALID,999.747,VALID,0,VALID,84.1471,VALID,0,VALID,24.8332,VALID,169,VALID,0.739062,
2010-07-18, 02:37:04,VALID,999.755,VALID,0,VALID,83.6969,VALID,0,VALID,24.8917,VALID,169,VALID,0.729297,
2010-07-18, 02:38:04,VALID,999.778,VALID,0,VALID,82.8424,VALID,0,VALID,24.9112,VALID,169,VALID,0.617578,
2010-07-18, 02:39:04,VALID,999.763,VALID,0,VALID,83.0332,VALID,0,VALID,24.9503,VALID,169,VALID,0.248437,
2010-07-18, 02:40:04,VALID,999.801,VALID,0,VALID,83.3841,VALID,0,VALID,25.0088,VALID,169,VALID,0.4125,
2010-07-18, 02:41:04,VALID,999.77,VALID,0,VALID,83.3612,VALID,0,VALID,25.0088,VALID,134,VALID,0.528516,
2010-07-18, 02:42:04,VALID,999.728,VALID,0,VALID,83.4604,VALID,0,VALID,25.0284,VALID,69,VALID,0.753906,
2010-07-18, 02:43:04,VALID,999.722,VALID,0,VALID,84.8643,VALID,0,VALID,25.0088,VALID,41,VALID,1.1,
2010-07-18, 02:44:04,VALID,999.737,VALID,0,VALID,85.5051,VALID,0,VALID,24.8722,VALID,25,VALID,1.26719,
2010-07-18, 02:45:04,VALID,999.717,VALID,0,VALID,85.9858,VALID,0,VALID,24.7551,VALID,16,VALID,1.35078,
2010-07-18, 02:46:04,VALID,999.698,VALID,0,VALID,86.6725,VALID,0,VALID,24.6575,VALID,4,VALID,1.11367,
2010-07-18, 02:47:04,VALID,999.671,VALID,0,VALID,86.8174,VALID,0,VALID,24.5794,VALID,350,VALID,1.10586,
2010-07-18, 02:48:04,VALID,999.626,VALID,0,VALID,86.6572,VALID,0,VALID,24.4995,VALID,341,VALID,0.857422,
2010-07-18, 02:49:04,VALID,999.638,VALID,0,VALID,87.26,VALID,0,VALID,24.4818,VALID,341,VALID,0.666016,
2010-07-18, 02:50:04,VALID,999.597,VALID,0,VALID,87.054,VALID,0,VALID,24.4623,VALID,341,VALID,0.798828,
2010-07-18, 02:51:04,VALID,999.635,VALID,0,VALID,86.909,VALID,0,VALID,24.4233,VALID,346,VALID,0.905469,
2010-07-18, 02:52:04,VALID,999.605,VALID,0,VALID,87.2829,VALID,0,VALID,24.4233,VALID,346,VALID,0.875781,
2010-07-18, 02:53:04,VALID,999.575,VALID,0,VALID,87.4431,VALID,0,VALID,24.4037,VALID,346,VALID,0.823047,
2010-07-18, 02:54:04,VALID,999.519,VALID,0,VALID,87.0616,VALID,0,VALID,24.3842,VALID,346,VALID,0.645312,
2010-07-18, 02:55:04,VALID,999.536,VALID,0,VALID,87.6033,VALID,0,VALID,24.3842,VALID,346,VALID,0.247656,
2010-07-18, 02:56:04,VALID,999.483,VALID,0,VALID,87.8551,VALID,0,VALID,24.3647,VALID,346,VALID,0.429688,
2010-07-18, 02:57:04,VALID,999.465,VALID,0,VALID,87.6491,VALID,0,VALID,24.3647,VALID,337,VALID,0.483984,
2010-07-18, 02:58:04,VALID,999.447,VALID,0,VALID,87.1989,VALID,0,VALID,24.3842,VALID,324,VALID,0.767578,
2010-07-18, 02:59:04,VALID,999.451,VALID,0,VALID,87.0997,VALID,0,VALID,24.4233,VALID,325,VALID,0.558594,
2010-07-18, 03:00:04,VALID,999.432,VALID,0,VALID,87.0997,VALID,0,VALID,24.4214,VALID,325,VALID,0.369531,
2010-07-18, 03:01:04,VALID,999.445,VALID,0,VALID,87.3363,VALID,0,VALID,24.4623,VALID,2,VALID,0.682422,
2010-07-18, 03:02:04,VALID,999.463,VALID,0,VALID,87.3515,VALID,0,VALID,24.4409,VALID,2,VALID,0.373047,
2010-07-18, 03:03:04,VALID,999.48,VALID,0,VALID,87.3515,VALID,0,VALID,24.4428,VALID,2,VALID,0.536328,
2010-07-18, 03:04:04,VALID,999.503,VALID,0,VALID,87.1074,VALID,0,VALID,24.4233,VALID,4,VALID,0.702344,
2010-07-18, 03:05:04,VALID,999.59,VALID,0,VALID,86.7488,VALID,0,VALID,24.4233,VALID,5,VALID,0.705078,
2010-07-18, 03:06:04,VALID,999.622,VALID,0,VALID,86.7106,VALID,0,VALID,24.4233,VALID,24,VALID,0.813672,
2010-07-18, 03:07:04,VALID,999.641,VALID,0,VALID,86.8022,VALID,0,VALID,24.4233,VALID,38,VALID,1.00312,
2010-07-18, 03:08:04,VALID,999.694,VALID,0,VALID,86.7946,VALID,0,VALID,24.4428,VALID,44,VALID,1.25977,
2010-07-18, 03:09:04,VALID,999.7,VALID,0,VALID,87.1455,VALID,0,VALID,24.4623,VALID,54,VALID,1.28516,
2010-07-18, 03:10:04,VALID,999.691,VALID,0,VALID,86.9929,VALID,0,VALID,24.4818,VALID,42,VALID,1.51523,
2010-07-18, 03:11:04,VALID,999.691,VALID,0,VALID,87.4736,VALID,0,VALID,24.5404,VALID,57,VALID,1.43594,
2010-07-18, 03:12:04,VALID,999.685,VALID,0,VALID,88.2137,VALID,0,VALID,24.5989,VALID,50,VALID,1.77734,
2010-07-18, 03:13:04,VALID,999.699,VALID,0,VALID,88.908,VALID,0,VALID,24.6965,VALID,58,VALID,2.13789,
2010-07-18, 03:14:04,VALID,999.68,VALID,0,VALID,89.1368,VALID,0,VALID,24.7746,VALID,57,VALID,1.83984,
2010-07-18, 03:15:04,VALID,999.636,VALID,0,VALID,88.6867,VALID,0,VALID,24.8703,VALID,66,VALID,2.59844,
2010-07-18, 03:16:04,VALID,999.623,VALID,0,VALID,88.3586,VALID,0,VALID,25.0674,VALID,58,VALID,2.33125,
2010-07-18, 03:17:04,VALID,999.603,VALID,0,VALID,87.7254,VALID,0,VALID,25.1845,VALID,53,VALID,2.30781,
2010-07-18, 03:18:04,VALID,999.588,VALID,0,VALID,87.6643,VALID,0,VALID,25.2821,VALID,53,VALID,1.75234,
2010-07-18, 03:19:04,VALID,999.607,VALID,0,VALID,87.3286,VALID,0,VALID,25.3212,VALID,52,VALID,1.75586,
2010-07-18, 03:20:04,VALID,999.609,VALID,0,VALID,87.176,VALID,0,VALID,25.3407,VALID,61,VALID,1.83047,
2010-07-18, 03:21:04,VALID,999.603,VALID,0,VALID,85.94,VALID,0,VALID,25.3602,VALID,52,VALID,2.45937,
2010-07-18, 03:22:04,VALID,999.658,VALID,0,VALID,86.0011,VALID,0,VALID,25.4188,VALID,56,VALID,1.78359,
2010-07-18, 03:23:04,VALID,999.643,VALID,0,VALID,85.9553,VALID,0,VALID,25.4774,VALID,63,VALID,2.42383,
2010-07-18, 03:24:04,VALID,999.657,VALID,0,VALID,86.8174,VALID,0,VALID,25.5164,VALID,73,VALID,1.57266,
2010-07-18, 03:25:04,VALID,999.635,VALID,0,VALID,86.6038,VALID,0,VALID,25.4578,VALID,93,VALID,1.60898,
2010-07-18, 03:26:04,VALID,999.613,VALID,0,VALID,86.1537,VALID,0,VALID,25.4383,VALID,79,VALID,1.48711,
2010-07-18, 03:27:04,VALID,999.608,VALID,0,VALID,85.9477,VALID,0,VALID,25.4578,VALID,90,VALID,1.95039,
2010-07-18, 03:28:04,VALID,999.6,VALID,0,VALID,85.7646,VALID,0,VALID,25.4969,VALID,82,VALID,1.98945,
2010-07-18, 03:29:04,VALID,999.597,VALID,0,VALID,85.7188,VALID,0,VALID,25.5164,VALID,97,VALID,1.5793,
2010-07-18, 03:30:04,VALID,999.611,VALID,0,VALID,85.6043,VALID,0,VALID,25.4969,VALID,105,VALID,2.27852,
2010-07-18, 03:31:04,VALID,999.599,VALID,0,VALID,86.0545,VALID,0,VALID,25.5164,VALID,109,VALID,1.28945,
2010-07-18, 03:32:04,VALID,999.612,VALID,0,VALID,86.436,VALID,0,VALID,25.4969,VALID,79,VALID,0.914453,
2010-07-18, 03:33:04,VALID,999.556,VALID,0,VALID,85.8637,VALID,0,VALID,25.4578,VALID,96,VALID,1.79336,
2010-07-18, 03:34:04,VALID,999.548,VALID,0,VALID,86.3978,VALID,0,VALID,25.4774,VALID,105,VALID,1.20313,
2010-07-18, 03:35:04,VALID,999.527,VALID,0,VALID,86.1918,VALID,0,VALID,25.4578,VALID,103,VALID,1.53633,
2010-07-18, 03:36:04,VALID,999.497,VALID,0,VALID,86.2681,VALID,0,VALID,25.4383,VALID,96,VALID,1.19727,
2010-07-18, 03:37:04,VALID,999.49,VALID,0,VALID,86.3368,VALID,0,VALID,25.4383,VALID,94,VALID,1.48867,
2010-07-18, 03:38:04,VALID,999.453,VALID,0,VALID,86.3978,VALID,0,VALID,25.4402,VALID,86,VALID,1.38789,
2010-07-18, 03:39:04,VALID,999.443,VALID,0,VALID,86.4054,VALID,0,VALID,25.4188,VALID,75,VALID,1.56758,
2010-07-18, 03:40:04,VALID,999.458,VALID,0,VALID,86.3292,VALID,0,VALID,25.4188,VALID,79,VALID,1.61719,
2010-07-18, 03:41:04,VALID,999.43,VALID,0,VALID,86.5733,VALID,0,VALID,25.3993,VALID,81,VALID,1.30117,
2010-07-18, 03:42:04,VALID,999.41,VALID,0,VALID,86.6191,VALID,0,VALID,25.3797,VALID,81,VALID,1.28437,
2010-07-18, 03:43:04,VALID,999.399,VALID,0,VALID,86.8174,VALID,0,VALID,25.3602,VALID,78,VALID,1.25664,
2010-07-18, 03:44:04,VALID,999.444,VALID,0,VALID,86.8785,VALID,0,VALID,25.3212,VALID,85,VALID,1.01484,
2010-07-18, 03:45:04,VALID,999.45,VALID,0,VALID,87.115,VALID,0,VALID,25.3017,VALID,83,VALID,1.11641,
2010-07-18, 03:46:04,VALID,999.46,VALID,0,VALID,87.0387,VALID,0,VALID,25.2821,VALID,89,VALID,0.828906,